Regional Weather Roundup
Issued by NWS Spokane, WA

Home | Current Version | Previous Version | Text Only | Print | Product List | Glossary On
Versions: 1 2 3 4 5 6 7 8 9 10 11 12 13 14 15 16 17 18 19 20 21 22 23 24 25 26 27 28 29 30 31 32 33 34 35 36 37 38 39 40 41 42 43 44 45 46 47 48 49 50
000
NZUS01 KOTX 201010
RWROTX
EASTERN WASHINGTON/NORTHERN IDAHO ROUNDUP
NATIONAL WEATHER SERVICE, SPOKANE WA
300 AM PDT SAT SEP 20 2014

Note: "fair" indicated few or no clouds below 12,000 feet with no
significant weather and/or obstructions to visibility.

...NORTHEAST WASHINGTON AND NORTHERN IDAHO PANHANDLE...

CITY           SKY/WX    TMP DP  RH WIND       PRES   REMARKS
SPOKANE INTL   PTCLDY    58  45  62 CALM      30.12S
SPOKANE DOWNTO PTCLDY    55  47  74 NE3       30.13R
COEUR D ALENE  PTCLDY    54  48  82 SE5       30.13S
DEER PARK      PTCLDY    47  43  86 CALM      30.13R
SANDPOINT      CLEAR     46  46 100 W3        30.14R

...SOUTHEAST WASHINGTON AND SOUTHERN IDAHO PANHANDLE...

CITY           SKY/WX    TMP DP  RH WIND       PRES   REMARKS
WALLA WALLA    CLEAR     62  47  57 S5        30.07R
PULLMAN/MOSCOW PTCLDY    57  44  62 NE6       30.15S
LEWISTON       CLEAR     60  46  59 E3        30.10S
LOWELL           N/A     52  49  89 N3        30.18S

...COLUMBIA BASIN...

CITY           SKY/WX    TMP DP  RH WIND       PRES   REMARKS
EPHRATA        CLEAR     61  48  62 N5        30.07R
MOSES LAKE     CLEAR     55  47  74 N5        30.08R
TRI CITIES     CLEAR     55  53  93 N3        30.06R
HERMISTON      CLEAR     56  45  66 S7        30.04R
PENDLETON      CLEAR     57  44  62 E9        30.07R

...EAST SLOPES CASCADES...

CITY           SKY/WX    TMP DP  RH WIND       PRES   REMARKS
THE DALLES     CLEAR     60  52  74 S6        30.03R
YAKIMA         CLEAR     58  50  75 W8        30.08R
ELLENSBURG     CLEAR     53  48  83 CALM      30.10S
WENATCHEE      CLEAR     63  50  62 VRB3      30.10R
OMAK           CLEAR     63  45  51 NW13      30.10R

...SOUTHERN BRITISH COLUMBIA...

CITY           SKY/WX    TMP DP  RH WIND       PRES   REMARKS
CRANBROOK      CLEAR     48  45  87 SW2       30.14R

...WESTERN MONTANA...

CITY           SKY/WX    TMP DP  RH WIND       PRES   REMARKS
MISSOULA       MOCLDY    48  42  80 CALM      30.21R

...NEIGHBORING CITIES...

CITY           SKY/WX    TMP DP  RH WIND       PRES   REMARKS
SEATTLE        CLEAR     62  55  77 NE9       30.11S
CALGARY        PTCLDY    48  37  66 NW6       30.11R



USA.gov is the U.S. government's official web portal to all federal, state and local government web resources and services.